TimePDT,TemperatureF,Dew PointF,Humidity,Sea Level PressureIn,VisibilityMPH,Wind Direction,Wind SpeedMPH,Gust SpeedMPH,PrecipitationIn,Events,Conditions,WindDirDegrees,DateUTC
12:53 AM,37.9,23.0,55,30.03,10.0,South,6.9,-,N/A,,Clear,190,2012-10-06 07:53:00
1:53 AM,37.0,23.0,57,30.04,10.0,South,5.8,-,N/A,,Clear,180,2012-10-06 08:53:00
2:53 AM,35.1,23.0,61,30.04,10.0,South,6.9,-,N/A,,Clear,170,2012-10-06 09:53:00
3:53 AM,30.9,19.9,64,30.06,10.0,Calm,Calm,-,N/A,,Clear,0,2012-10-06 10:53:00
4:53 AM,28.9,19.9,69,30.08,10.0,SSE,4.6,-,N/A,,Clear,160,2012-10-06 11:53:00
5:53 AM,27.0,18.0,69,30.11,10.0,South,9.2,-,N/A,,Clear,170,2012-10-06 12:53:00
6:53 AM,27.0,18.0,69,30.17,10.0,SSE,9.2,-,N/A,,Clear,160,2012-10-06 13:53:00
7:53 AM,34.0,19.9,56,30.14,10.0,South,4.6,-,N/A,,Clear,180,2012-10-06 14:53:00
8:53 AM,45.0,14.0,29,30.10,10.0,Calm,Calm,-,N/A,,Clear,0,2012-10-06 15:53:00
9:53 AM,50.0,14.0,24,30.07,10.0,Calm,Calm,-,N/A,,Clear,0,2012-10-06 16:53:00
10:53 AM,55.0,16.0,22,30.08,10.0,NNE,8.1,-,N/A,,Clear,30,2012-10-06 17:53:00
11:53 AM,59.0,17.1,20,30.06,10.0,North,9.2,-,N/A,,Clear,10,2012-10-06 18:53:00
12:53 PM,63.0,17.1,17,30.00,10.0,North,12.7,17.3,N/A,,Clear,10,2012-10-06 19:53:00
1:53 PM,62.1,16.0,17,29.99,10.0,NNE,6.9,-,N/A,,Clear,20,2012-10-06 20:53:00
2:53 PM,61.0,12.9,15,29.99,10.0,North,9.2,-,N/A,,Clear,10,2012-10-06 21:53:00
3:53 PM,64.9,12.9,13,29.97,10.0,NNE,5.8,-,N/A,,Clear,20,2012-10-06 22:53:00
4:53 PM,62.1,14.0,15,29.99,10.0,Calm,Calm,-,N/A,,Clear,0,2012-10-06 23:53:00
5:53 PM,57.0,12.9,18,30.02,10.0,NNE,4.6,-,N/A,,Clear,20,2012-10-07 00:53:00
6:53 PM,50.0,14.0,24,30.06,10.0,Calm,Calm,-,N/A,,Clear,0,2012-10-07 01:53:00
7:53 PM,48.2,10.4,22,30.13,10.0,North,9.2,-,N/A,,Clear,360,2012-10-07 02:53:00
8:53 PM,43.0,12.0,28,30.04,10.0,North,6.9,-,N/A,,Clear,350,2012-10-07 03:53:00
9:53 PM,42.1,12.0,29,30.03,10.0,Variable,3.5,-,N/A,,Clear,0,2012-10-07 04:53:00
10:53 PM,30.9,10.9,43,30.07,10.0,SSE,8.1,-,N/A,,Clear,160,2012-10-07 05:53:00
11:53 PM,37.4,10.4,33,30.18,10.0,Calm,Calm,-,N/A,,Clear,0,2012-10-07 06:53:00